TimeCST,TemperatureF,Dew PointF,Humidity,Sea Level PressureIn,VisibilityMPH,Wind Direction,Wind SpeedMPH,Gust SpeedMPH,PrecipitationIn,Events,Conditions,WindDirDegrees,DateUTC
12:54 AM,27.0,18.0,69,30.34,10.0,Calm,Calm,-,N/A,,Clear,0,2012-12-30 06:54:00
1:54 AM,27.0,18.0,69,30.35,10.0,Calm,Calm,-,N/A,,Clear,0,2012-12-30 07:54:00
2:54 AM,28.0,18.0,66,30.34,10.0,Calm,Calm,-,N/A,,Clear,0,2012-12-30 08:54:00
3:54 AM,26.1,17.1,69,30.34,10.0,Calm,Calm,-,N/A,,Clear,0,2012-12-30 09:54:00
4:54 AM,23.0,17.1,78,30.34,10.0,Calm,Calm,-,N/A,,Clear,0,2012-12-30 10:54:00
5:54 AM,27.0,17.1,66,30.33,10.0,South,3.5,-,N/A,,Clear,190,2012-12-30 11:54:00
6:54 AM,25.0,16.0,69,30.34,10.0,South,4.6,-,N/A,,Clear,190,2012-12-30 12:54:00
7:54 AM,26.1,17.1,69,30.34,10.0,SSW,5.8,-,N/A,,Clear,200,2012-12-30 13:54:00
8:54 AM,30.9,21.0,67,30.32,10.0,South,5.8,-,N/A,,Clear,190,2012-12-30 14:54:00
9:54 AM,36.0,21.0,55,30.33,10.0,South,8.1,-,N/A,,Clear,190,2012-12-30 15:54:00
10:54 AM,43.0,19.0,38,30.32,10.0,SSW,11.5,-,N/A,,Clear,210,2012-12-30 16:54:00
11:54 AM,45.0,19.0,36,30.26,10.0,South,13.8,-,N/A,,Clear,190,2012-12-30 17:54:00
12:54 PM,48.0,19.0,32,30.24,10.0,SSW,17.3,29.9,N/A,,Clear,210,2012-12-30 18:54:00
1:54 PM,46.9,18.0,32,30.19,10.0,SSW,16.1,28.8,N/A,,Clear,200,2012-12-30 19:54:00
2:54 PM,46.9,18.0,32,30.18,10.0,SSW,11.5,31.1,N/A,,Clear,200,2012-12-30 20:54:00
3:54 PM,46.0,18.0,33,30.17,10.0,SSW,20.7,25.3,N/A,,Clear,200,2012-12-30 21:54:00
4:54 PM,44.1,18.0,35,30.15,10.0,SSW,18.4,25.3,N/A,,Clear,200,2012-12-30 22:54:00
5:54 PM,43.0,17.1,35,30.15,10.0,SSW,13.8,-,N/A,,Clear,210,2012-12-30 23:54:00
6:54 PM,43.0,17.1,35,30.15,10.0,SSW,15.0,25.3,N/A,,Clear,200,2012-12-31 00:54:00
7:54 PM,42.1,18.0,38,30.15,10.0,SSW,11.5,20.7,N/A,,Clear,210,2012-12-31 01:54:00
8:54 PM,39.9,19.0,43,30.14,10.0,SSW,12.7,-,N/A,,Clear,210,2012-12-31 02:54:00
9:54 PM,39.9,19.0,43,30.14,10.0,SW,10.4,-,N/A,,Clear,220,2012-12-31 03:54:00
10:54 PM,37.9,19.9,48,30.14,10.0,SSW,9.2,-,N/A,,Clear,210,2012-12-31 04:54:00
11:54 PM,37.4,21.2,52,30.14,10.0,SW,12.7,-,N/A,,Clear,220,2012-12-31 05:54:00